Torna al catalogo

STARLINK-34958

AttivoComunicazioniSSO
NORAD 65237·PAYLOAD·🇺🇸 United States

Lanciato Aug 18, 2025 da Vandenberg Space Force Base

Loading…

Prossimi Passaggi (prossime 24 ore)

TLE

AggiornatoSource: CelesTrak SupGP

Epoca: Sep 15, 2026, 02:25 UTC

1 65237C 25179C   26258.10118056  .00025411  00000+0  78888-3 0  2584
2 65237  97.2835 297.4544 0001122  92.4063 224.9776 15.33423853    19

Traccia STARLINK-34958 in tempo reale con AllMySat

Download on the App Store